Home   Weather   Evansville   Past weeks

Flag for USA Past Weather in Evansville, Indiana, USA — Yesterday and Last 2 Weeks

Now
78 °F

Light rain. Clear.


Feels Like: 81 °F
Forecast: 75 / 83 °F
Wind: 5 mph from West

Location: Evansville Regional Airport

Current Time: Jul 27, 2017 at 12:07:34 am

Latest Report: Jul 26, 2017 at 10:54 pm


Visibility: 10 mi

Pressure: 29.99 "Hg

Humidity: 82%

Dew Point: 72 °F

Location of EvansvilleLocation

Past Weather in Evansville — Graph

°F

Evansville Temperature Yesterday

Maximum temperature yesterday: 93 °F (at 1:54 pm)
Minimum temperature yesterday: 69 °F (at 5:54 am)
Average temperature yesterday: 78 °F

High & Low Weather Summary for the Past Weeks

 TemperatureHumidityPressure
High98 °F (Jul 22, 2:54 pm)97% (Jul 16, 2:54 am)30.14 "Hg (Jul 16, 2:54 am)
Low64 °F (Jul 16, 4:54 am)40% (Jul 20, 1:54 pm)29.78 "Hg (Jul 22, 3:54 pm)
Average81 °F71%30.00 "Hg
* Reported Jul 11 10:54 pm — Jul 26 10:54 pm, Evansville. Weather by CustomWeather, © 2017

Note: Actual official high and low records may vary slightly from our data, if they occured in-between our weather recording intervals... More about our weather records

Advertising

Evansville Weather History for the Previous 24 Hours

Scroll right to see more
 ConditionsComfort  
Time TempWeatherWind HumidityBarometerVisibility
10:54 pm
Wed, Jul 26
78 °FLight rain. Clear.5 mph82%29.99 "Hg10 mi
9:54 pm78 °FClear.No wind82%29.99 "Hg10 mi
8:54 pm79 °FClear.3 mph79%30.00 "Hg10 mi
7:54 pm79 °FPassing clouds.3 mph79%29.98 "Hg8 mi
6:54 pm79 °FScattered clouds.No wind79%29.98 "Hg10 mi
6:18 pm78 °FBroken clouds.7 mph79%30.00 "Hg8 mi
5:54 pm78 °FThunderstorms. Broken clouds.15 mph84%30.00 "Hg8 mi
4:54 pm83 °FThundershowers. Scattered clouds.9 mph61%29.99 "Hg10 mi
4:17 pm91 °FThundershowers. Scattered clouds.9 mph57%29.99 "Hg10 mi
4:01 pm91 °FPartly sunny.9 mph60%29.99 "Hg10 mi
3:42 pm91 °FThundershowers. Scattered clouds.7 mph60%29.98 "Hg10 mi
1:54 pm93 °FBroken clouds.8 mph56%30.01 "Hg10 mi
12:54 pm89 °FScattered clouds.7 mph65%30.04 "Hg10 mi
11:54 am79 °FScattered clouds.8 mph88%30.06 "Hg10 mi
10:54 am76 °FScattered clouds.7 mph88%30.07 "Hg10 mi
9:54 am74 °FBroken clouds.5 mph88%30.08 "Hg10 mi
8:54 am73 °FScattered clouds.6 mph88%30.08 "Hg10 mi
7:54 am71 °FSunny.3 mph87%30.09 "Hg10 mi
6:54 am70 °FSunny.3 mph93%30.09 "Hg10 mi
5:54 am69 °FSunny.No wind93%30.08 "Hg10 mi
4:54 am71 °FPartly sunny.3 mph90%30.09 "Hg10 mi
3:54 am71 °FClear.3 mph87%30.09 "Hg10 mi
2:54 am72 °FClear.6 mph84%30.09 "Hg10 mi
1:54 am73 °FClear.No wind81%30.09 "Hg10 mi
12:54 am74 °FClear.3 mph82%30.10 "Hg10 mi
Weather by CustomWeather, © 2017

See weather overviewHow to use our weather pages